Time,TemperatureF,DewpointF,PressureIn,WindDirection,WindDirectionDegrees,WindSpeedMPH,WindSpeedGustMPH,Humidity,HourlyPrecipIn,Conditions,Clouds,dailyrainin,SoftwareType,DateUTC
2013-07-28 00:00:00,78.7,73.7,30.00,South,178,9.9,15.4,85,0.00, ,,-99.99,VWS V12.07,2013-07-28 04:00:00,
2013-07-28 00:02:00,78.7,73.6,30.00,SSE,167,8.7,11.2,84,0.00, ,,-99.99,VWS V12.07,2013-07-28 04:02:00,
2013-07-28 00:03:00,78.3,73.2,30.00,SSE,167,8.8,11.4,84,0.00, ,,-99.99,VWS V12.07,2013-07-28 04:03:00,
2013-07-28 00:04:00,78.1,72.9,30.00,SSW,195,9.1,11.7,84,0.00, ,,-99.99,VWS V12.07,2013-07-28 04:04:00,
2013-07-28 00:05:00,78.2,73.1,30.00,South,177,10.8,11.7,84,0.00, ,,-99.99,VWS V12.07,2013-07-28 04:05:00,
2013-07-28 00:08:00,78.3,73.2,29.99,South,171,12.8,12.9,84,0.00, ,,-99.99,VWS V12.07,2013-07-28 04:08:00,
2013-07-28 00:13:00,78.9,73.7,29.99,South,178,8.3,14.8,84,0.00, ,,-99.99,VWS V12.07,2013-07-28 04:13:00,
2013-07-28 00:18:00,78.7,73.0,29.98,South,177,9.4,14.9,83,0.00, ,,-99.99,VWS V12.07,2013-07-28 04:18:00,
2013-07-28 00:23:00,78.9,72.9,29.99,SSW,201,8.8,11.4,82,0.00, ,,-99.99,VWS V12.07,2013-07-28 04:23:00,
2013-07-28 00:28:00,79.3,73.5,29.98,SSE,168,10.6,12.4,82,0.00, ,,-99.99,VWS V12.07,2013-07-28 04:28:00,
2013-07-28 00:33:00,78.9,73.2,29.98,South,184,9.1,15.2,83,0.00, ,,-99.99,VWS V12.07,2013-07-28 04:33:00,
2013-07-28 00:38:00,79.3,73.8,29.99,SSW,206,10.3,15.2,83,0.00, ,,-99.99,VWS V12.07,2013-07-28 04:38:00,
2013-07-28 00:43:00,79.5,74.3,29.98,SSE,161,6.5,13.2,84,0.00, ,,-99.99,VWS V12.07,2013-07-28 04:43:00,
2013-07-28 00:48:00,79.2,74.2,29.98,South,185,12.4,15.5,85,0.00, ,,-99.99,VWS V12.07,2013-07-28 04:48:00,
2013-07-28 00:53:00,79.4,74.4,29.98,SSE,167,13.0,16.7,85,0.00, ,,-99.99,VWS V12.07,2013-07-28 04:53:00,
2013-07-28 00:58:00,79.3,74.6,29.98,SW,215,10.7,16.7,86,0.00, ,,-99.99,VWS V12.07,2013-07-28 04:58:00,
2013-07-28 01:03:00,78.8,74.4,29.98,SSE,149,9.8,12.6,86,0.00, ,,-99.99,VWS V12.07,2013-07-28 05:03:00,
2013-07-28 01:08:00,79.1,74.7,29.98,SSE,157,13.3,14.7,86,0.00, ,,-99.99,VWS V12.07,2013-07-28 05:08:00,
2013-07-28 01:13:00,79.3,74.9,29.98,South,173,8.5,14.7,86,0.00, ,,-99.99,VWS V12.07,2013-07-28 05:13:00,
2013-07-28 01:18:00,79.2,74.7,29.97,SSW,195,8.6,15.2,86,0.00, ,,-99.99,VWS V12.07,2013-07-28 05:18:00,
2013-07-28 01:23:00,78.9,74.4,29.97,South,187,9.8,20.5,86,0.00, ,,-99.99,VWS V12.07,2013-07-28 05:23:00,
2013-07-28 01:28:00,78.3,74.5,29.97,SE,138,17.8,21.0,88,0.00, ,,-99.99,VWS V12.07,2013-07-28 05:28:00,
2013-07-28 01:33:00,78.1,75.1,29.97,SSE,152,17.5,22.6,90,0.00, ,,-99.99,VWS V12.07,2013-07-28 05:33:00,
2013-07-28 01:38:00,77.2,74.2,29.97,SSE,147,13.2,22.6,91,0.01, ,,-99.99,VWS V12.07,2013-07-28 05:38:00,
2013-07-28 01:43:00,76.8,74.5,29.97,SSE,154,16.5,17.0,93,0.02, ,,-99.99,VWS V12.07,2013-07-28 05:43:00,
2013-07-28 01:48:00,76.7,74.1,29.97,South,191,17.1,24.4,92,0.02, ,,-99.99,VWS V12.07,2013-07-28 05:48:00,
2013-07-28 01:53:00,75.8,73.3,29.97,South,191,12.0,24.4,92,0.02, ,,-99.99,VWS V12.07,2013-07-28 05:53:00,
2013-07-28 01:58:00,76.2,74.1,29.97,SSW,212,10.0,24.4,93,0.08, ,,-99.99,VWS V12.07,2013-07-28 05:58:00,
2013-07-28 02:03:00,76.8,74.8,29.97,South,170,14.0,21.3,94,0.09, ,,-99.99,VWS V12.07,2013-07-28 06:03:00,
2013-07-28 02:08:00,76.1,74.1,29.97,SW,223,15.7,22.3,93,0.09, ,,-99.99,VWS V12.07,2013-07-28 06:08:00,
2013-07-28 02:13:00,76.3,74.3,29.97,SW,232,8.7,22.3,94,0.10, ,,-99.99,VWS V12.07,2013-07-28 06:13:00,
2013-07-28 02:18:00,76.3,74.5,29.95,SSW,204,5.5,22.3,94,0.10, ,,-99.99,VWS V12.07,2013-07-28 06:18:00,
2013-07-28 02:23:00,77.1,75.2,29.96,SSW,198,9.9,9.9,94,0.10, ,,-99.99,VWS V12.07,2013-07-28 06:23:00,
2013-07-28 02:28:00,77.1,75.0,29.97,SSW,205,12.4,25.0,93,0.10, ,,-99.99,VWS V12.07,2013-07-28 06:28:00,
2013-07-28 02:33:00,76.1,73.2,29.97,SSW,192,17.3,25.0,91,0.10, ,,-99.99,VWS V12.07,2013-07-28 06:33:00,
2013-07-28 02:39:00,76.7,73.6,29.96,SSE,153,4.5,25.0,90,0.11, ,,-99.99,VWS V12.07,2013-07-28 06:39:00,
2013-07-28 02:44:00,76.7,73.5,29.96,SSW,199,10.1,16.9,90,0.11, ,,-99.99,VWS V12.07,2013-07-28 06:44:00,
2013-07-28 02:49:00,77.5,74.4,29.96,South,173,15.8,18.9,90,0.11, ,,-99.99,VWS V12.07,2013-07-28 06:49:00,
2013-07-28 02:54:00,77.2,74.3,29.95,SSW,192,12.4,21.8,91,0.11, ,,-99.99,VWS V12.07,2013-07-28 06:54:00,
2013-07-28 02:59:00,77.1,74.5,29.95,South,190,19.3,21.8,92,0.11, ,,-99.99,VWS V12.07,2013-07-28 06:59:00,
2013-07-28 03:04:00,77.2,74.3,29.95,SSW,208,15.3,19.4,91,0.04, ,,-99.99,VWS V12.07,2013-07-28 07:04:00,
2013-07-28 03:09:00,77.4,74.8,29.95,South,190,9.6,20.4,92,0.04, ,,-99.99,VWS V12.07,2013-07-28 07:09:00,
2013-07-28 03:14:00,77.3,74.2,29.95,ESE,122,14.7,22.4,90,0.04, ,,-99.99,VWS V12.07,2013-07-28 07:14:00,
2013-07-28 03:19:00,77.4,74.3,29.95,South,178,12.7,23.1,90,0.04, ,,-99.99,VWS V12.07,2013-07-28 07:19:00,
2013-07-28 03:24:00,77.7,73.9,29.95,SSW,195,16.6,21.8,88,0.02, ,,-99.99,VWS V12.07,2013-07-28 07:24:00,
2013-07-28 03:29:00,77.4,74.0,29.95,South,185,9.6,21.8,89,0.02, ,,-99.99,VWS V12.07,2013-07-28 07:29:00,
2013-07-28 03:34:00,78.1,74.2,29.94,SSW,195,13.7,21.8,88,0.02, ,,-99.99,VWS V12.07,2013-07-28 07:34:00,
2013-07-28 03:39:00,77.8,73.7,29.94,South,181,12.8,21.8,87,0.02, ,,-99.99,VWS V12.07,2013-07-28 07:39:00,
2013-07-28 03:42:00,77.8,73.8,29.94,South,180,14.1,17.7,87,0.00, ,,-99.99,VWS V12.07,2013-07-28 07:42:00,
2013-07-28 03:48:00,77.8,74.4,29.94,South,182,9.0,17.7,89,0.00, ,,-99.99,VWS V12.07,2013-07-28 07:48:00,
2013-07-28 03:53:00,77.7,74.7,29.93,SSW,211,7.8,17.7,91,0.00, ,,-99.99,VWS V12.07,2013-07-28 07:53:00,
2013-07-28 03:58:00,77.9,74.8,29.93,South,187,8.3,17.7,90,0.00, ,,-99.99,VWS V12.07,2013-07-28 07:58:00,
2013-07-28 04:03:00,77.7,74.2,29.93,SSW,204,8.5,15.7,89,0.00, ,,-99.99,VWS V12.07,2013-07-28 08:03:00,
2013-07-28 04:08:00,77.9,74.4,29.92,SSW,206,8.1,15.7,89,0.00, ,,-99.99,VWS V12.07,2013-07-28 08:08:00,
2013-07-28 04:13:00,78.0,74.5,29.92,SSW,205,9.1,15.7,89,0.00, ,,-99.99,VWS V12.07,2013-07-28 08:13:00,
2013-07-28 04:18:00,78.0,74.5,29.92,South,185,11.1,15.7,89,0.00, ,,-99.99,VWS V12.07,2013-07-28 08:18:00,
2013-07-28 04:23:00,78.2,74.7,29.92,South,173,13.8,14.5,89,0.00, ,,-99.99,VWS V12.07,2013-07-28 08:23:00,
2013-07-28 04:28:00,78.7,75.3,29.92,South,171,5.6,16.2,89,0.00, ,,-99.99,VWS V12.07,2013-07-28 08:28:00,
2013-07-28 04:34:00,78.2,74.8,29.92,SSE,156,6.3,16.2,89,0.00, ,,-99.99,VWS V12.07,2013-07-28 08:34:00,
2013-07-28 04:40:00,78.3,75.0,29.91,SSE,168,3.3,16.2,90,0.00, ,,-99.99,VWS V12.07,2013-07-28 08:40:00,
2013-07-28 04:45:00,78.2,74.9,29.91,South,174,4.2,10.7,90,0.00, ,,-99.99,VWS V12.07,2013-07-28 08:45:00,
2013-07-28 04:50:00,77.8,74.6,29.90,SSE,154,6.9,10.7,90,0.00, ,,-99.99,VWS V12.07,2013-07-28 08:50:00,
2013-07-28 04:55:00,78.1,75.0,29.90,SSE,160,6.0,10.7,90,0.00, ,,-99.99,VWS V12.07,2013-07-28 08:55:00,
2013-07-28 04:57:00,78.3,75.3,29.90,SE,139,6.6,10.7,90,0.00, ,,-99.99,VWS V12.07,2013-07-28 08:57:00,
2013-07-28 05:03:00,78.3,75.3,29.90,South,190,4.7,7.1,90,0.00, ,,-99.99,VWS V12.07,2013-07-28 09:03:00,
2013-07-28 05:08:00,78.8,75.8,29.90,ESE,109,0.0,7.1,90,0.00, ,,-99.99,VWS V12.07,2013-07-28 09:08:00,
2013-07-28 05:13:00,78.5,75.5,29.91,South,171,3.3,7.1,91,0.00, ,,-99.99,VWS V12.07,2013-07-28 09:13:00,
2013-07-28 05:18:00,78.7,75.9,29.91,SSE,152,0.0,7.1,91,0.00, ,,-99.99,VWS V12.07,2013-07-28 09:18:00,
2013-07-28 05:23:00,78.8,76.0,29.91,SSE,152,0.0,0.0,91,0.00, ,,-99.99,VWS V12.07,2013-07-28 09:23:00,
2013-07-28 05:28:00,78.2,75.5,29.91,SSE,152,0.0,0.0,91,0.00, ,,-99.99,VWS V12.07,2013-07-28 09:28:00,
2013-07-28 05:33:00,78.7,76.0,29.91,SSW,194,4.8,7.0,91,0.00, ,,-99.99,VWS V12.07,2013-07-28 09:33:00,
2013-07-28 05:38:00,77.9,74.9,29.92,South,182,0.0,7.0,91,0.00, ,,-99.99,VWS V12.07,2013-07-28 09:38:00,
2013-07-28 05:43:00,78.2,75.0,29.92,SSW,208,7.1,10.2,90,0.00, ,,-99.99,VWS V12.07,2013-07-28 09:43:00,
2013-07-28 05:48:00,78.3,74.9,29.92,SSW,198,4.2,10.2,89,0.00, ,,-99.99,VWS V12.07,2013-07-28 09:48:00,
2013-07-28 05:53:00,78.9,75.4,29.92,SW,220,5.8,10.2,89,0.00, ,,-99.99,VWS V12.07,2013-07-28 09:53:00,
2013-07-28 05:58:00,78.4,74.8,29.92,SSW,213,3.3,10.2,89,0.00, ,,-99.99,VWS V12.07,2013-07-28 09:58:00,
2013-07-28 06:03:00,78.5,74.6,29.92,SW,222,0.0,0.0,88,0.00, ,,-99.99,VWS V12.07,2013-07-28 10:03:00,
2013-07-28 06:08:00,78.8,74.9,29.92,SW,222,0.0,0.0,88,0.00, ,,-99.99,VWS V12.07,2013-07-28 10:08:00,
2013-07-28 06:13:00,78.8,74.7,29.92,WSW,243,0.0,5.7,87,0.00, ,,-99.99,VWS V12.07,2013-07-28 10:13:00,
2013-07-28 06:18:00,79.0,74.9,29.92,West,263,4.3,7.0,87,0.00, ,,-99.99,VWS V12.07,2013-07-28 10:18:00,
2013-07-28 06:23:00,78.8,74.8,29.93,WSW,246,3.4,9.1,88,0.00, ,,-99.99,VWS V12.07,2013-07-28 10:23:00,
2013-07-28 06:28:00,78.3,73.9,29.93,WSW,251,7.6,11.1,86,0.00, ,,-99.99,VWS V12.07,2013-07-28 10:28:00,
2013-07-28 06:33:00,78.0,73.6,29.93,WSW,250,7.0,11.2,86,0.00, ,,-99.99,VWS V12.07,2013-07-28 10:33:00,
2013-07-28 06:38:00,78.5,74.2,29.93,WSW,254,10.4,11.5,87,0.00, ,,-99.99,VWS V12.07,2013-07-28 10:38:00,
2013-07-28 06:43:00,78.8,74.6,29.93,WSW,251,9.9,11.9,87,0.00, ,,-99.99,VWS V12.07,2013-07-28 10:43:00,
2013-07-28 06:48:00,78.7,74.4,29.93,West,260,9.9,11.9,87,0.00, ,,-99.99,VWS V12.07,2013-07-28 10:48:00,
2013-07-28 06:53:00,78.3,73.9,29.94,West,271,8.7,11.9,86,0.00, ,,-99.99,VWS V12.07,2013-07-28 10:53:00,
2013-07-28 06:58:00,78.7,74.5,29.94,West,274,9.5,11.9,87,0.00, ,,-99.99,VWS V12.07,2013-07-28 10:58:00,
2013-07-28 07:03:00,78.7,74.7,29.94,WNW,303,11.1,13.4,87,0.00, ,,-99.99,VWS V12.07,2013-07-28 11:03:00,
2013-07-28 07:08:00,78.7,75.5,29.94,NW,313,7.8,13.4,90,0.00, ,,-99.99,VWS V12.07,2013-07-28 11:08:00,
2013-07-28 07:13:00,78.3,75.4,29.95,NW,318,8.0,13.4,91,0.00, ,,-99.99,VWS V12.07,2013-07-28 11:13:00,
2013-07-28 07:18:00,78.1,75.4,29.95,WNW,301,5.9,13.4,91,0.00, ,,-99.99,VWS V12.07,2013-07-28 11:18:00,
2013-07-28 07:23:00,77.8,75.3,29.95,WNW,301,5.1,7.5,92,0.00, ,,-99.99,VWS V12.07,2013-07-28 11:23:00,
2013-07-28 07:28:00,77.9,75.5,29.95,NW,315,5.6,7.5,92,0.00, ,,-99.99,VWS V12.07,2013-07-28 11:28:00,
2013-07-28 07:33:00,77.8,75.5,29.96,NW,326,5.5,7.5,93,0.00, ,,-99.99,VWS V12.07,2013-07-28 11:33:00,
2013-07-28 07:38:00,77.5,75.3,29.96,NNW,330,6.6,10.7,93,0.00, ,,-99.99,VWS V12.07,2013-07-28 11:38:00,
2013-07-28 07:43:00,77.7,75.6,29.96,NW,310,7.2,9.4,93,0.00, ,,-99.99,VWS V12.07,2013-07-28 11:43:00,
2013-07-28 07:48:00,77.1,74.9,29.97,NW,325,7.8,10.6,93,0.00, ,,-99.99,VWS V12.07,2013-07-28 11:48:00,
2013-07-28 07:53:00,77.4,75.1,29.97,WNW,289,8.0,10.6,93,0.00, ,,-99.99,VWS V12.07,2013-07-28 11:53:00,
2013-07-28 07:58:00,77.4,75.2,29.97,WNW,285,3.0,10.6,93,0.00, ,,-99.99,VWS V12.07,2013-07-28 11:58:00,
2013-07-28 08:03:00,77.5,75.2,29.97,West,281,7.1,7.2,93,0.00, ,,-99.99,VWS V12.07,2013-07-28 12:03:00,
2013-07-28 08:08:00,77.3,75.0,29.97,West,267,7.0,9.9,93,0.00, ,,-99.99,VWS V12.07,2013-07-28 12:08:00,
2013-07-28 08:13:00,77.4,75.1,29.97,WNW,294,5.7,9.9,93,0.00, ,,-99.99,VWS V12.07,2013-07-28 12:13:00,
2013-07-28 08:18:00,77.5,75.2,29.97,WNW,285,7.6,9.9,93,0.00, ,,-99.99,VWS V12.07,2013-07-28 12:18:00,
2013-07-28 08:23:00,77.7,75.4,29.97,NW,318,7.8,8.3,93,0.00, ,,-99.99,VWS V12.07,2013-07-28 12:23:00,
2013-07-28 08:28:00,77.9,75.6,29.97,NW,309,0.0,8.9,93,0.00, ,,-99.99,VWS V12.07,2013-07-28 12:28:00,
2013-07-28 08:33:00,77.8,75.4,29.98,West,265,9.1,9.8,92,0.00, ,,-99.99,VWS V12.07,2013-07-28 12:33:00,
2013-07-28 08:38:00,77.8,75.4,29.98,West,271,5.3,10.4,92,0.00, ,,-99.99,VWS V12.07,2013-07-28 12:38:00,
2013-07-28 08:43:00,77.3,74.8,29.98,West,264,6.8,10.7,92,0.00, ,,-99.99,VWS V12.07,2013-07-28 12:43:00,
2013-07-28 08:49:00,78.5,76.0,29.98,West,265,7.3,10.9,92,0.00, ,,-99.99,VWS V12.07,2013-07-28 12:49:00,
2013-07-28 08:54:00,77.4,74.7,29.98,West,275,9.7,11.9,91,0.00, ,,-99.99,VWS V12.07,2013-07-28 12:54:00,
2013-07-28 08:59:00,78.1,75.4,29.98,West,271,7.7,12.2,92,0.00, ,,-99.99,VWS V12.07,2013-07-28 12:59:00,
2013-07-28 09:04:00,78.1,75.4,29.98,West,272,7.6,11.9,91,0.00, ,,-99.99,VWS V12.07,2013-07-28 13:04:00,
2013-07-28 09:09:00,78.1,75.4,29.98,WSW,256,9.1,12.6,91,0.00, ,,-99.99,VWS V12.07,2013-07-28 13:09:00,
2013-07-28 09:14:00,78.0,75.2,29.99,West,270,6.2,12.6,91,0.00, ,,-99.99,VWS V12.07,2013-07-28 13:14:00,
2013-07-28 09:19:00,78.2,75.3,29.99,WSW,250,7.8,13.2,91,0.00, ,,-99.99,VWS V12.07,2013-07-28 13:19:00,
2013-07-28 09:24:00,78.9,75.8,29.99,West,265,9.7,12.3,90,0.00, ,,-99.99,VWS V12.07,2013-07-28 13:24:00,
2013-07-28 09:29:00,78.2,74.6,29.99,West,274,11.5,16.1,89,0.00, ,,-99.99,VWS V12.07,2013-07-28 13:29:00,
2013-07-28 09:34:00,79.0,75.4,29.99,WNW,284,9.4,16.1,89,0.00, ,,-99.99,VWS V12.07,2013-07-28 13:34:00,
2013-07-28 09:39:00,78.9,75.3,29.99,West,267,5.3,16.1,89,0.00, ,,-99.99,VWS V12.07,2013-07-28 13:39:00,
2013-07-28 09:44:00,79.1,75.0,29.99,West,264,8.8,10.3,87,0.00, ,,-99.99,VWS V12.07,2013-07-28 13:44:00,
2013-07-28 09:49:00,79.3,74.7,29.99,WSW,250,7.3,11.5,86,0.00, ,,-99.99,VWS V12.07,2013-07-28 13:49:00,
2013-07-28 09:54:00,79.8,75.0,29.99,SW,219,7.4,11.5,85,0.00, ,,-99.99,VWS V12.07,2013-07-28 13:54:00,
2013-07-28 09:59:00,80.0,74.7,29.99,WSW,256,7.3,11.9,84,0.00, ,,-99.99,VWS V12.07,2013-07-28 13:59:00,
2013-07-28 10:04:00,80.0,74.3,29.99,West,261,8.3,11.6,83,0.00, ,,-99.99,VWS V12.07,2013-07-28 14:04:00,
2013-07-28 10:09:00,80.6,74.2,30.00,West,267,5.5,11.6,81,0.00, ,,-99.99,VWS V12.07,2013-07-28 14:09:00,
2013-07-28 10:14:00,81.3,75.8,29.99,SW,236,10.5,15.3,83,0.00, ,,-99.99,VWS V12.07,2013-07-28 14:14:00,
2013-07-28 10:19:00,80.8,75.1,30.00,SW,232,9.5,15.3,83,0.00, ,,-99.99,VWS V12.07,2013-07-28 14:19:00,
2013-07-28 10:24:00,80.6,75.0,29.99,SW,236,8.8,11.9,83,0.00, ,,-99.99,VWS V12.07,2013-07-28 14:24:00,
2013-07-28 10:29:00,80.7,75.3,30.00,WSW,246,9.4,11.9,84,0.00, ,,-99.99,VWS V12.07,2013-07-28 14:29:00,
2013-07-28 10:34:00,81.0,75.1,30.00,WSW,240,9.6,11.9,82,0.00, ,,-99.99,VWS V12.07,2013-07-28 14:34:00,
2013-07-28 10:39:00,80.8,74.4,30.00,West,281,6.3,11.9,81,0.00, ,,-99.99,VWS V12.07,2013-07-28 14:39:00,
2013-07-28 10:44:00,81.3,74.9,30.00,WSW,247,5.8,10.4,81,0.00, ,,-99.99,VWS V12.07,2013-07-28 14:44:00,
2013-07-28 10:49:00,80.8,74.8,30.00,WSW,240,9.1,11.6,82,0.00, ,,-99.99,VWS V12.07,2013-07-28 14:49:00,
2013-07-28 10:54:00,81.0,74.2,30.00,SW,226,7.5,11.6,80,0.00, ,,-99.99,VWS V12.07,2013-07-28 14:54:00,
2013-07-28 10:59:00,81.4,74.4,30.00,West,274,7.5,13.6,79,0.00, ,,-99.99,VWS V12.07,2013-07-28 14:59:00,
2013-07-28 11:04:00,81.5,75.0,30.00,SW,222,12.2,13.9,81,0.00, ,,-99.99,VWS V12.07,2013-07-28 15:04:00,
2013-07-28 11:09:00,80.9,74.8,30.00,SW,220,12.4,13.9,82,0.00, ,,-99.99,VWS V12.07,2013-07-28 15:09:00,
2013-07-28 11:14:00,80.6,74.6,30.01,SSW,208,13.7,15.0,82,0.00, ,,-99.99,VWS V12.07,2013-07-28 15:14:00,
2013-07-28 11:19:00,80.9,75.3,30.01,SW,223,10.3,15.1,83,0.00, ,,-99.99,VWS V12.07,2013-07-28 15:19:00,
2013-07-28 11:24:00,81.0,75.9,30.01,SW,215,13.7,14.6,84,0.00, ,,-99.99,VWS V12.07,2013-07-28 15:24:00,
2013-07-28 11:29:00,80.7,75.9,30.01,SW,233,9.8,14.6,85,0.00, ,,-99.99,VWS V12.07,2013-07-28 15:29:00,
2013-07-28 11:34:00,80.7,75.2,30.01,SW,215,12.9,14.6,83,0.00, ,,-99.99,VWS V12.07,2013-07-28 15:34:00,
2013-07-28 11:39:00,81.1,76.1,30.01,SSW,212,9.1,14.6,85,0.00, ,,-99.99,VWS V12.07,2013-07-28 15:39:00,
2013-07-28 11:44:00,81.0,75.7,30.01,SW,225,11.6,11.7,84,0.00, ,,-99.99,VWS V12.07,2013-07-28 15:44:00,
2013-07-28 11:49:00,81.3,75.8,30.01,SW,215,8.9,12.6,83,0.00, ,,-99.99,VWS V12.07,2013-07-28 15:49:00,
2013-07-28 11:54:00,81.5,75.0,30.01,SSW,208,7.8,12.6,81,0.00, ,,-99.99,VWS V12.07,2013-07-28 15:54:00,
2013-07-28 11:59:00,81.9,75.1,30.01,SW,228,9.0,12.6,80,0.00, ,,-99.99,VWS V12.07,2013-07-28 15:59:00,
2013-07-28 12:04:00,82.1,75.9,30.00,SSW,199,9.4,12.1,82,0.00, ,,-99.99,VWS V12.07,2013-07-28 16:04:00,
2013-07-28 12:09:00,81.4,74.7,30.00,SSW,213,9.7,12.6,80,0.00, ,,-99.99,VWS V12.07,2013-07-28 16:09:00,
2013-07-28 12:14:00,81.6,73.8,30.00,SW,226,7.8,12.6,77,0.00, ,,-99.99,VWS V12.07,2013-07-28 16:14:00,
2013-07-28 12:19:00,81.5,74.6,30.00,SW,218,7.9,13.0,80,0.00, ,,-99.99,VWS V12.07,2013-07-28 16:19:00,
2013-07-28 12:24:00,81.4,73.8,30.00,SW,218,11.0,13.4,78,0.00, ,,-99.99,VWS V12.07,2013-07-28 16:24:00,
2013-07-28 12:29:00,81.2,74.3,30.00,SW,219,11.4,13.4,80,0.00, ,,-99.99,VWS V12.07,2013-07-28 16:29:00,
2013-07-28 12:34:00,81.3,74.4,29.99,SW,220,10.9,13.9,80,0.00, ,,-99.99,VWS V12.07,2013-07-28 16:34:00,
2013-07-28 12:40:00,81.3,74.8,30.00,SSW,209,11.9,13.9,81,0.00, ,,-99.99,VWS V12.07,2013-07-28 16:40:00,
2013-07-28 12:45:00,81.2,74.7,30.00,SW,218,11.0,14.2,81,0.00, ,,-99.99,VWS V12.07,2013-07-28 16:45:00,
2013-07-28 12:50:00,81.0,75.3,30.00,SSW,213,11.3,14.9,83,0.00, ,,-99.99,VWS V12.07,2013-07-28 16:50:00,
2013-07-28 12:55:00,81.2,75.3,30.00,SW,219,11.3,15.2,82,0.00, ,,-99.99,VWS V12.07,2013-07-28 16:55:00,
2013-07-28 13:00:00,81.1,74.9,30.00,SW,223,12.7,15.2,82,0.00, ,,-99.99,VWS V12.07,2013-07-28 17:00:00,
2013-07-28 13:05:00,80.5,74.4,30.00,SW,228,12.3,14.0,82,0.00, ,,-99.99,VWS V12.07,2013-07-28 17:05:00,
2013-07-28 13:10:00,80.5,73.3,30.00,SW,219,13.8,15.1,79,0.00, ,,-99.99,VWS V12.07,2013-07-28 17:10:00,
2013-07-28 13:15:00,80.2,73.8,30.00,SW,220,9.8,15.1,81,0.00, ,,-99.99,VWS V12.07,2013-07-28 17:15:00,
2013-07-28 13:20:00,80.7,74.9,30.00,SW,222,11.0,15.1,82,0.00, ,,-99.99,VWS V12.07,2013-07-28 17:20:00,
2013-07-28 13:25:00,80.8,74.5,30.00,SW,218,14.8,15.2,81,0.00, ,,-99.99,VWS V12.07,2013-07-28 17:25:00,
2013-07-28 13:30:00,80.6,74.3,30.00,SW,230,12.6,16.6,81,0.00, ,,-99.99,VWS V12.07,2013-07-28 17:30:00,
2013-07-28 13:35:00,80.9,74.8,30.00,South,184,13.4,17.0,82,0.00, ,,-99.99,VWS V12.07,2013-07-28 17:35:00,
2013-07-28 13:40:00,81.5,75.4,30.00,SW,220,10.9,17.0,82,0.00, ,,-99.99,VWS V12.07,2013-07-28 17:40:00,
2013-07-28 13:45:00,81.2,74.7,30.00,SW,220,14.5,17.0,81,0.00, ,,-99.99,VWS V12.07,2013-07-28 17:45:00,
2013-07-28 13:50:00,81.5,75.4,30.00,SSW,211,12.0,17.0,82,0.00, ,,-99.99,VWS V12.07,2013-07-28 17:50:00,
2013-07-28 13:55:00,81.4,74.7,29.99,SW,228,10.9,17.0,80,0.00, ,,-99.99,VWS V12.07,2013-07-28 17:55:00,
2013-07-28 14:00:00,81.2,74.5,29.99,SSW,211,14.0,17.0,80,0.00, ,,-99.99,VWS V12.07,2013-07-28 18:00:00,
2013-07-28 14:05:00,80.8,74.7,29.99,SW,226,16.0,17.5,82,0.00, ,,-99.99,VWS V12.07,2013-07-28 18:05:00,
2013-07-28 14:10:00,81.7,75.4,29.99,SSW,213,15.2,17.5,81,0.00, ,,-99.99,VWS V12.07,2013-07-28 18:10:00,
2013-07-28 14:15:00,81.0,75.0,29.99,SW,215,15.6,18.5,82,0.00, ,,-99.99,VWS V12.07,2013-07-28 18:15:00,
2013-07-28 14:20:00,80.9,75.0,29.99,SSW,213,15.0,18.8,82,0.00, ,,-99.99,VWS V12.07,2013-07-28 18:20:00,
2013-07-28 14:25:00,81.1,75.6,29.99,SW,235,16.1,17.5,83,0.00, ,,-99.99,VWS V12.07,2013-07-28 18:25:00,
2013-07-28 14:30:00,81.3,75.7,29.99,SW,216,15.5,17.5,83,0.00, ,,-99.99,VWS V12.07,2013-07-28 18:30:00,
2013-07-28 14:35:00,81.0,75.6,29.99,SW,225,15.7,17.7,84,0.00, ,,-99.99,VWS V12.07,2013-07-28 18:35:00,
2013-07-28 14:40:00,80.6,74.9,29.99,SW,225,15.2,19.1,83,0.00, ,,-99.99,VWS V12.07,2013-07-28 18:40:00,
2013-07-28 14:45:00,81.3,75.5,29.99,SW,218,17.8,18.6,82,0.00, ,,-99.99,VWS V12.07,2013-07-28 18:45:00,
2013-07-28 14:50:00,80.9,75.4,29.99,SW,220,15.9,19.4,83,0.00, ,,-99.99,VWS V12.07,2013-07-28 18:50:00,
2013-07-28 14:55:00,81.5,76.1,29.99,SW,230,18.7,20.1,84,0.00, ,,-99.99,VWS V12.07,2013-07-28 18:55:00,
2013-07-28 15:00:00,80.9,75.4,29.99,SW,223,16.5,20.1,83,0.00, ,,-99.99,VWS V12.07,2013-07-28 19:00:00,
2013-07-28 15:05:00,81.0,75.1,29.99,SW,223,16.5,19.8,82,0.00, ,,-99.99,VWS V12.07,2013-07-28 19:05:00,
2013-07-28 15:11:00,81.3,75.7,29.99,SW,222,15.5,19.8,83,0.00, ,,-99.99,VWS V12.07,2013-07-28 19:11:00,
2013-07-28 15:16:00,81.4,75.5,29.99,SW,228,15.4,19.8,82,0.00, ,,-99.99,VWS V12.07,2013-07-28 19:16:00,
2013-07-28 15:21:00,81.5,75.8,29.99,SSW,212,13.8,14.0,83,0.00, ,,-99.99,VWS V12.07,2013-07-28 19:21:00,
2013-07-28 15:26:00,81.8,75.8,30.00,SSE,167,11.7,18.5,82,0.00, ,,-99.99,VWS V12.07,2013-07-28 19:26:00,
2013-07-28 15:31:00,81.9,75.9,29.99,SW,216,17.2,18.5,82,0.00, ,,-99.99,VWS V12.07,2013-07-28 19:31:00,
2013-07-28 15:36:00,81.7,75.3,29.99,SW,215,13.4,18.5,81,0.00, ,,-99.99,VWS V12.07,2013-07-28 19:36:00,
2013-07-28 15:42:00,81.5,73.8,30.00,SSW,205,11.2,18.3,77,0.00, ,,-99.99,VWS V12.07,2013-07-28 19:42:00,
2013-07-28 15:47:00,81.8,74.0,30.00,SSW,206,14.5,20.6,77,0.00, ,,-99.99,VWS V12.07,2013-07-28 19:47:00,
2013-07-28 15:52:00,82.5,75.0,30.00,SW,215,12.2,20.6,78,0.00, ,,-99.99,VWS V12.07,2013-07-28 19:52:00,
2013-07-28 15:57:00,82.5,74.9,30.00,SW,220,9.9,20.6,78,0.00, ,,-99.99,VWS V12.07,2013-07-28 19:57:00,
2013-07-28 16:03:00,82.1,75.2,29.99,SSW,204,12.8,16.8,80,0.00, ,,-99.99,VWS V12.07,2013-07-28 20:03:00,
2013-07-28 16:08:00,82.4,75.5,29.99,SSW,211,14.9,17.3,80,0.00, ,,-99.99,VWS V12.07,2013-07-28 20:08:00,
2013-07-28 16:13:00,82.9,75.4,29.99,SSW,211,13.9,17.8,78,0.00, ,,-99.99,VWS V12.07,2013-07-28 20:13:00,
2013-07-28 16:18:00,82.4,75.1,29.99,SW,216,15.1,19.3,78,0.00, ,,-99.99,VWS V12.07,2013-07-28 20:18:00,
2013-07-28 16:23:00,82.9,75.7,30.00,SSW,199,8.1,14.5,79,0.00, ,,-99.99,VWS V12.07,2013-07-28 20:23:00,
2013-07-28 16:28:00,82.8,75.2,30.00,South,184,11.0,19.7,78,0.00, ,,-99.99,VWS V12.07,2013-07-28 20:28:00,
2013-07-28 16:33:00,82.1,74.9,30.00,SW,222,13.2,19.9,79,0.00, ,,-99.99,VWS V12.07,2013-07-28 20:33:00,
2013-07-28 16:38:00,81.9,75.0,30.00,SW,222,11.9,19.9,80,0.00, ,,-99.99,VWS V12.07,2013-07-28 20:38:00,
2013-07-28 16:43:00,81.7,74.6,30.00,SW,223,13.9,18.6,79,0.00, ,,-99.99,VWS V12.07,2013-07-28 20:43:00,
2013-07-28 16:48:00,82.1,75.1,30.00,SSW,206,14.4,18.8,79,0.00, ,,-99.99,VWS V12.07,2013-07-28 20:48:00,
2013-07-28 16:53:00,82.2,75.2,30.01,SW,216,13.4,20.6,79,0.00, ,,-99.99,VWS V12.07,2013-07-28 20:53:00,
2013-07-28 16:58:00,82.4,75.5,30.00,SSW,198,13.4,20.6,80,0.00, ,,-99.99,VWS V12.07,2013-07-28 20:58:00,
2013-07-28 17:03:00,82.3,75.7,30.01,SW,218,13.2,21.6,81,0.00, ,,-99.99,VWS V12.07,2013-07-28 21:03:00,
2013-07-28 17:08:00,81.8,75.9,30.01,South,191,11.1,21.6,82,0.00, ,,-99.99,VWS V12.07,2013-07-28 21:08:00,
2013-07-28 17:13:00,82.0,75.8,30.01,South,181,13.5,21.8,82,0.00, ,,-99.99,VWS V12.07,2013-07-28 21:13:00,
2013-07-28 17:18:00,81.8,76.1,30.01,SSW,195,14.7,22.4,83,0.00, ,,-99.99,VWS V12.07,2013-07-28 21:18:00,
2013-07-28 17:23:00,82.1,76.2,30.00,SSW,213,13.9,15.2,82,0.00, ,,-99.99,VWS V12.07,2013-07-28 21:23:00,
2013-07-28 17:29:00,82.5,77.1,30.00,SW,218,11.6,19.9,84,0.00, ,,-99.99,VWS V12.07,2013-07-28 21:29:00,
2013-07-28 17:34:00,81.8,75.9,30.00,SSW,212,15.5,19.9,82,0.00, ,,-99.99,VWS V12.07,2013-07-28 21:34:00,
2013-07-28 17:39:00,82.4,76.5,30.00,SSW,204,14.9,19.9,82,0.00, ,,-99.99,VWS V12.07,2013-07-28 21:39:00,
2013-07-28 17:44:00,82.2,75.3,30.00,SW,215,15.6,19.9,80,0.00, ,,-99.99,VWS V12.07,2013-07-28 21:44:00,
2013-07-28 17:50:00,82.7,76.3,30.00,SW,218,11.4,19.9,81,0.00, ,,-99.99,VWS V12.07,2013-07-28 21:50:00,
2013-07-28 17:55:00,82.5,76.5,30.00,South,178,9.8,19.9,82,0.00, ,,-99.99,VWS V12.07,2013-07-28 21:55:00,
2013-07-28 18:00:00,82.4,76.4,30.00,South,178,11.2,19.9,82,0.00, ,,-99.99,VWS V12.07,2013-07-28 22:00:00,
2013-07-28 18:05:00,82.5,76.8,30.01,SSW,195,9.7,14.1,83,0.00, ,,-99.99,VWS V12.07,2013-07-28 22:05:00,
2013-07-28 18:10:00,82.4,76.8,30.00,SSE,149,12.2,17.3,83,0.00, ,,-99.99,VWS V12.07,2013-07-28 22:10:00,
2013-07-28 18:15:00,81.4,74.9,30.00,SW,216,19.3,21.6,81,0.00, ,,-99.99,VWS V12.07,2013-07-28 22:15:00,
2013-07-28 18:20:00,81.6,75.0,30.00,SSW,211,12.5,21.6,80,0.00, ,,-99.99,VWS V12.07,2013-07-28 22:20:00,
2013-07-28 18:25:00,82.2,75.6,30.00,SSW,205,14.9,21.9,80,0.00, ,,-99.99,VWS V12.07,2013-07-28 22:25:00,
2013-07-28 18:30:00,81.8,74.7,30.00,SSW,205,19.1,21.9,79,0.00, ,,-99.99,VWS V12.07,2013-07-28 22:30:00,
2013-07-28 18:35:00,81.8,74.5,30.01,SSW,211,20.8,23.1,79,0.00, ,,-99.99,VWS V12.07,2013-07-28 22:35:00,
2013-07-28 18:40:00,81.5,75.2,30.02,South,191,14.1,23.1,81,0.00, ,,-99.99,VWS V12.07,2013-07-28 22:40:00,
2013-07-28 18:45:00,81.8,75.4,30.02,SSW,208,19.1,24.7,81,0.00, ,,-99.99,VWS V12.07,2013-07-28 22:45:00,
2013-07-28 18:50:00,81.6,74.5,30.02,SSW,201,18.3,25.6,79,0.00, ,,-99.99,VWS V12.07,2013-07-28 22:50:00,
2013-07-28 18:55:00,81.6,74.3,30.02,SSW,205,17.3,25.6,79,0.00, ,,-99.99,VWS V12.07,2013-07-28 22:55:00,
2013-07-28 19:00:00,81.1,74.3,30.02,SSW,204,14.5,25.6,80,0.00, ,,-99.99,VWS V12.07,2013-07-28 23:00:00,
2013-07-28 19:05:00,81.1,74.3,30.02,SSW,213,18.8,25.7,80,0.00, ,,-99.99,VWS V12.07,2013-07-28 23:05:00,
2013-07-28 19:10:00,81.0,74.6,30.02,SSW,206,17.5,25.7,81,0.00, ,,-99.99,VWS V12.07,2013-07-28 23:10:00,
2013-07-28 19:15:00,80.9,74.7,30.02,South,171,14.7,25.7,82,0.00, ,,-99.99,VWS V12.07,2013-07-28 23:15:00,
2013-07-28 19:20:00,81.5,75.7,30.02,SSE,160,11.9,25.7,82,0.00, ,,-99.99,VWS V12.07,2013-07-28 23:20:00,
2013-07-28 19:25:00,81.1,75.4,30.02,SSW,206,17.5,21.3,83,0.00, ,,-99.99,VWS V12.07,2013-07-28 23:25:00,
2013-07-28 19:30:00,81.3,75.9,30.02,SSW,208,16.3,25.4,84,0.00, ,,-99.99,VWS V12.07,2013-07-28 23:30:00,
2013-07-28 19:35:00,80.6,75.6,30.02,SSW,199,14.4,25.4,85,0.00, ,,-99.99,VWS V12.07,2013-07-28 23:35:00,
2013-07-28 19:40:00,81.0,76.3,30.01,South,188,13.8,25.4,86,0.00, ,,-99.99,VWS V12.07,2013-07-28 23:40:00,
2013-07-28 19:45:00,80.7,76.2,30.02,SSW,212,14.7,23.1,86,0.00, ,,-99.99,VWS V12.07,2013-07-28 23:45:00,
2013-07-28 19:50:00,80.5,75.5,30.02,South,187,16.5,24.3,85,0.00, ,,-99.99,VWS V12.07,2013-07-28 23:50:00,
2013-07-28 19:55:00,80.7,76.0,30.02,SSW,213,19.0,24.3,86,0.00, ,,-99.99,VWS V12.07,2013-07-28 23:55:00,
2013-07-28 20:00:00,80.1,74.9,30.02,SSW,213,17.7,24.3,84,0.00, ,,-99.99,VWS V12.07,2013-07-29 00:00:00,
2013-07-28 20:05:00,80.4,75.3,30.02,SW,215,20.9,24.5,84,0.00, ,,-99.99,VWS V12.07,2013-07-29 00:05:00,
2013-07-28 20:10:00,80.3,75.0,30.02,SSW,198,19.7,25.2,84,0.00, ,,-99.99,VWS V12.07,2013-07-29 00:10:00,
2013-07-28 20:15:00,80.4,75.9,30.02,SSW,194,16.8,25.2,86,0.00, ,,-99.99,VWS V12.07,2013-07-29 00:15:00,
2013-07-28 20:20:00,80.1,75.9,30.02,SSW,195,16.0,25.6,87,0.00, ,,-99.99,VWS V12.07,2013-07-29 00:20:00,
2013-07-28 20:25:00,80.1,76.1,30.02,SSW,213,18.9,24.9,88,0.00, ,,-99.99,VWS V12.07,2013-07-29 00:25:00,
2013-07-28 20:30:00,80.3,75.9,30.02,SW,220,21.2,24.9,87,0.00, ,,-99.99,VWS V12.07,2013-07-29 00:30:00,
2013-07-28 20:35:00,80.2,75.9,30.02,SSW,211,20.4,27.7,87,0.00, ,,-99.99,VWS V12.07,2013-07-29 00:35:00,
2013-07-28 20:40:00,79.9,74.6,30.02,SW,229,18.8,27.8,84,0.00, ,,-99.99,VWS V12.07,2013-07-29 00:40:00,
2013-07-28 20:45:00,80.1,74.4,30.02,SSW,211,21.1,26.3,83,0.00, ,,-99.99,VWS V12.07,2013-07-29 00:45:00,
2013-07-28 20:50:00,80.4,75.0,30.02,SSW,211,15.3,26.5,84,0.00, ,,-99.99,VWS V12.07,2013-07-29 00:50:00,
2013-07-28 20:55:00,80.4,75.3,30.02,SSW,195,16.0,26.5,84,0.00, ,,-99.99,VWS V12.07,2013-07-29 00:55:00,
2013-07-28 21:00:00,80.5,75.1,30.02,SW,229,17.3,26.5,84,0.00, ,,-99.99,VWS V12.07,2013-07-29 01:00:00,
2013-07-28 21:05:00,80.4,75.3,30.02,SW,216,18.5,24.2,84,0.00, ,,-99.99,VWS V12.07,2013-07-29 01:05:00,
2013-07-28 21:10:00,80.4,76.0,30.03,SW,220,22.6,26.0,86,0.00, ,,-99.99,VWS V12.07,2013-07-29 01:10:00,
2013-07-28 21:15:00,80.1,75.6,30.03,SW,220,17.6,26.0,86,0.00, ,,-99.99,VWS V12.07,2013-07-29 01:15:00,
2013-07-28 21:20:00,80.2,75.6,30.03,SW,219,21.9,26.0,86,0.00, ,,-99.99,VWS V12.07,2013-07-29 01:20:00,
2013-07-28 21:26:00,80.3,76.2,30.03,SW,216,20.3,25.7,87,0.00, ,,-99.99,VWS V12.07,2013-07-29 01:26:00,
2013-07-28 21:32:00,80.0,75.8,30.04,SW,215,21.1,25.7,87,0.00, ,,-99.99,VWS V12.07,2013-07-29 01:32:00,
2013-07-28 21:38:00,80.4,76.1,30.04,SW,228,18.8,25.7,87,0.00, ,,-99.99,VWS V12.07,2013-07-29 01:38:00,
2013-07-28 21:44:00,80.3,76.3,30.04,SSW,212,17.1,22.0,88,0.00, ,,-99.99,VWS V12.07,2013-07-29 01:44:00,
2013-07-28 21:49:00,79.8,75.6,30.04,SSW,205,14.1,24.8,87,0.00, ,,-99.99,VWS V12.07,2013-07-29 01:49:00,
2013-07-28 21:55:00,80.1,76.1,30.04,SSW,195,16.0,24.8,88,0.00, ,,-99.99,VWS V12.07,2013-07-29 01:55:00,
2013-07-28 22:00:00,80.8,76.9,30.04,SSW,211,14.7,24.8,88,0.00, ,,-99.99,VWS V12.07,2013-07-29 02:00:00,
2013-07-28 22:06:00,80.1,76.1,30.04,SW,232,17.0,23.2,88,0.00, ,,-99.99,VWS V12.07,2013-07-29 02:06:00,
2013-07-28 22:11:00,80.1,75.9,30.04,SSW,208,16.3,23.2,87,0.00, ,,-99.99,VWS V12.07,2013-07-29 02:11:00,
2013-07-28 22:16:00,80.1,75.8,30.05,SW,222,21.4,25.8,87,0.00, ,,-99.99,VWS V12.07,2013-07-29 02:16:00,
2013-07-28 22:21:00,80.2,75.8,30.05,SW,216,19.9,19.9,87,0.00, ,,-99.99,VWS V12.07,2013-07-29 02:21:00,
2013-07-28 22:26:00,80.5,76.0,30.05,South,174,19.9,23.5,86,0.00, ,,-99.99,VWS V12.07,2013-07-29 02:26:00,
2013-07-28 22:32:00,79.9,75.3,30.04,SW,223,15.1,23.5,86,0.00, ,,-99.99,VWS V12.07,2013-07-29 02:32:00,
2013-07-28 22:38:00,80.3,75.7,30.04,SSW,206,16.2,23.5,86,0.00, ,,-99.99,VWS V12.07,2013-07-29 02:38:00,
2013-07-28 22:43:00,80.5,75.8,30.04,SSW,212,16.3,23.7,86,0.00, ,,-99.99,VWS V12.07,2013-07-29 02:43:00,
2013-07-28 22:49:00,80.3,75.2,30.04,SW,222,17.1,23.7,84,0.00, ,,-99.99,VWS V12.07,2013-07-29 02:49:00,
2013-07-28 22:55:00,80.2,75.0,30.04,SW,222,14.6,23.7,84,0.00, ,,-99.99,VWS V12.07,2013-07-29 02:55:00,
2013-07-28 23:00:00,80.5,75.2,30.04,SSW,209,13.5,23.7,84,0.00, ,,-99.99,VWS V12.07,2013-07-29 03:00:00,
2013-07-28 23:05:00,80.4,75.2,30.04,SW,219,19.1,19.4,84,0.00, ,,-99.99,VWS V12.07,2013-07-29 03:05:00,
2013-07-28 23:10:00,80.3,75.2,30.04,SW,233,12.0,21.0,84,0.00, ,,-99.99,VWS V12.07,2013-07-29 03:10:00,
2013-07-28 23:15:00,80.3,74.8,30.04,WSW,243,17.0,21.7,83,0.00, ,,-99.99,VWS V12.07,2013-07-29 03:15:00,
2013-07-28 23:20:00,80.4,75.3,30.03,SW,226,18.1,21.7,85,0.00, ,,-99.99,VWS V12.07,2013-07-29 03:20:00,
2013-07-28 23:25:00,80.3,75.5,30.03,SW,222,15.9,19.3,85,0.00, ,,-99.99,VWS V12.07,2013-07-29 03:25:00,
2013-07-28 23:30:00,80.4,75.7,30.03,SW,218,12.7,22.2,86,0.00, ,,-99.99,VWS V12.07,2013-07-29 03:30:00,
2013-07-28 23:36:00,80.3,75.4,30.04,SW,220,15.5,22.2,85,0.00, ,,-99.99,VWS V12.07,2013-07-29 03:36:00,
2013-07-28 23:41:00,80.4,75.4,30.04,SSW,212,18.8,19.8,85,0.00, ,,-99.99,VWS V12.07,2013-07-29 03:41:00,
2013-07-28 23:46:00,79.9,74.8,30.04,SSW,206,15.8,20.3,85,0.00, ,,-99.99,VWS V12.07,2013-07-29 03:46:00,
2013-07-28 23:51:00,80.6,76.0,30.04,SSW,197,14.1,21.0,86,0.00, ,,-99.99,VWS V12.07,2013-07-29 03:51:00,
2013-07-28 23:57:00,80.5,75.5,30.05,SSW,198,14.3,21.0,85,0.00, ,,-99.99,VWS V12.07,2013-07-29 03:57:00,